Location: Bonn
(50.7330°N, 7.1000°E)
Time: 16:12:23
(UTC+01:00)

Iridium 67 - Visible Passes

Search period start: 14 December 2017 00:00
Search period end: 24 December 2017 00:00
Orbit: 776 x 779 km, 86.4° (Epoch: 13 December)

Date Brightness Start Highest point End Pass type
(mag) Time Alt. Az. Time Alt. Az. Time Alt. Az.
14 Dec 7.7 05:35:33 13° N 05:35:33 13° N 05:36:09 10° N visible
14 Dec 7.6 17:31:25 10° NNW 17:35:52 29° W 17:40:18 10° SW visible
16 Dec 8.3 18:06:35 10° NW 18:08:56 13° WNW 18:11:17 10° W visible
17 Dec 8.0 17:31:54 10° NNW 17:35:48 22° WNW 17:39:42 10° SW visible
20 Dec 8.2 17:32:34 10° NW 17:35:41 16° WNW 17:38:47 10° WSW visible
23 Dec 8.4 17:33:45 10° NW 17:35:32 12° WNW 17:37:19 10° W visible
